Starlink 3691

operational
NORAD ID: 51960 Int'l Des: 2022-025 Owner: SPXS Country: US Constellation: starlink
LEOCIRCULARSTARLINK_TYPE

Über Starlink 3691

Beschreibung wird geladen...

Live-Position

3D-Globus wird geladen...

Nächste Überflüge

Höhenverlauf

Altitude vs Time

uPlot chart will show altitude changes over time

Zweizeiliger Elementsatz

1 51960U 22025E 25351.86039489 -.00001329 00000-0 -70326-4 0 9994
2 51960 53.0557 43.1930 0001364 82.6532 277.4612 15.06400511208516
Epoch: 17. Dez. 2025 • Age: 11 hours

Aktueller Status

Höhe 563.8 km
Geschwindigkeit 7.58 km/s
Subsatellitenpunkt -46.32°S, 149.77°E
Startdatum 9. März 2022
Alter 3.7 years
Typ internet

Technische Details

Klassifizierung Payload
Masse 297.00 kg
Trockenmasse 275.00 kg
Gesamtmasse 297.00 kg
Länge 0.20 m
Durchmesser 2.80 m
Spannweite 9.00 m
Form Box + pan
Hersteller SPXS
Bus-Typ Starlink
Phasenstatus In Orbit
Besitzer/Staat SPXS/US

Große Konstellationen

Loading constellations...